DELTA 1 DEB, 10873

Orbit data source: Space-Track

DELTA 1 DEB, 10873 is space debris in SSO originally from a launch on Thu, 29 Jul 1976 UTC launched from the Air Force Western Test Range (AFWTR). Debris objects in space refer to the collection of defunct objects orbiting the Earth. Examples of debris include non-operational satellites, rocket bodies, and fragments generated from explosions, collisions, or faulty payload assembly.

Loading next visibility...
Identifier
10873, 1976-077DB
Orbit
SSO
Country
Flag of USUS
Related business
Manufacturer
Unknown
Mission
Spacecraft
Bus & Motor
Unknown
Mass
Unknown
Launch date (UTC)
1976-07-29 (50 years ago)
Launch vehicle
Unknown
Launch site
Air Force Western Test Range (AFWTR)
Object type
Payload
Rocket body
Debris
Shape & HBR
Unknown shape, 0.1 m
Radar Cross Section
Medium (>0.1 m² and <1 m²)

Expand to show TLE details & history
Last TLE update: 3 days ago

TLE from 3 days ago
0 DELTA 1 DEB
1 10873U 76077DB  26171.30981568  .00000043  00000-0  85602-3 0  9994
2 10873 102.2176 295.4732 0140453 158.0921 229.7385 12.13916396212096
Epoch: 2026-06-20T07:26Z
TLE epoch observation values (Epoch: 2026-06-20T07:26:08.074Z)
Latitude
25.99981°
Longitude
-90.61983°
Altitude
1,695.462 km
Speed
6.997 km/s
True Right ascension
19h 17m 45s
True Declination
25° 52' 49"
Sunlit
Object was in daylight at epoch
Visualization orbit readout
Latitude
Unknown
Longitude
Unknown
Altitude
Unknown
Speed
Unknown
Apparent Right ascension
Unknown
Apparent Declination
Unknown
Sunlit
N/A
Visualization observer readout
Local Sidereal Time
07:09:46
Azimuth
Unknown
Elevation
Unknown
Doppler factor
Unknown
Orbital elements
Apogee altitude
1,729.062 km
Perigee altitude
1,504.48 km
Semi-major axis
7,994.908 km
Eccentricity
0.01405
Inclination
102.2176°
RAAN
295.4732°
Arg. of periapsis
158.0921°
True anomaly
228.52418°
Mean anomaly
229.7385°
Eccentric anomaly
229.12996°
Mean motion
3.03615 °/min
Orbital period
118.57 mins
BSTAR
0.00085602
Loading maneuver chart data...
Computing Atmospheric mass density...
Loading historical data...
Loading historical data...
Loading historical data...
Loading historical data...
Loading historical data...
Loading historical data...
Loading historical data...

Documentation

Showing up to 5 results
|